When you browse on this site, cookies collect data to enhance your experience and personalize the content and advertising you see.
Visit our Privacy Policy to learn more. By continuing to use the site, you agree to this use of cookies and data.
EN

Hourly Weather Pazardzhik

Today, 8 July, Wednesday

Time Temperature Precipitation Wind Pressure Humidity
00:00 +18°C° 0 mm 3 mps 741 mmHg 78%
01:00 +17°C° 0 mm 3 mps 742 mmHg 78%
02:00 +17°C° 0 mm 3 mps 742 mmHg 78%
03:00 +16°C° 0 mm 3 mps 742 mmHg 78%
04:00 +16°C° 0 mm 3 mps 742 mmHg 77%
05:00 +15°C° 0 mm 2 mps 742 mmHg 77%
06:00 +17°C° 0 mm 2 mps 743 mmHg 71%
07:00 +18°C° 0 mm 2 mps 743 mmHg 66%
08:00 +20°C° 0 mm 2 mps 744 mmHg 60%
09:00 +21°C° 0 mm 2 mps 744 mmHg 56%
10:00 +24°C° 0 mm 2 mps 744 mmHg 52%
11:00 +25°C° 0 mm 2 mps 745 mmHg 49%
12:00 +26°C° 0 mm 2 mps 744 mmHg 47%
13:00 +26°C° 0 mm 2 mps 744 mmHg 46%
14:00 +27°C° 0 mm 2 mps 744 mmHg 45%
15:00 +27°C° 0 mm 2 mps 744 mmHg 46%
16:00 +27°C° 0 mm 2 mps 744 mmHg 47%
17:00 +27°C° 0 mm 2 mps 744 mmHg 48%
18:00 +25°C° 0 mm 2 mps 744 mmHg 55%
19:00 +23°C° 0 mm 1 mps 744 mmHg 62%
20:00 +21°C° 0 mm 1 mps 744 mmHg 70%
21:00 +21°C° 0 mm 1 mps 744 mmHg 72%
22:00 +20°C° 0 mm 1 mps 745 mmHg 74%
23:00 +19°C° 0 mm 1 mps 745 mmHg 76%

Tomorrow, 9 July, Thursday

Time Temperature Precipitation Wind Pressure Humidity
00:00 +19°C° 0 mm 1 mps 745 mmHg 78%
01:00 +18°C° 0 mm 1 mps 745 mmHg 79%
02:00 +18°C° 0 mm 1 mps 745 mmHg 81%
03:00 +18°C° 0 mm 1 mps 745 mmHg 83%
04:00 +16°C° 0 mm 1 mps 745 mmHg 84%
05:00 +16°C° 0 mm 1 mps 745 mmHg 86%
06:00 +19°C° 0 mm 1 mps 745 mmHg 79%
07:00 +21°C° 0 mm 1 mps 745 mmHg 73%
08:00 +23°C° 0 mm 1 mps 746 mmHg 66%
09:00 +25°C° 0 mm 1 mps 746 mmHg 61%
10:00 +26°C° 0 mm 1 mps 746 mmHg 56%
11:00 +27°C° 0 mm 2 mps 746 mmHg 51%
12:00 +28°C° 0 mm 2 mps 746 mmHg 48%
13:00 +29°C° 0 mm 2 mps 745 mmHg 46%
14:00 +29°C° 0 mm 2 mps 745 mmHg 43%
15:00 +29°C° 0 mm 2 mps 745 mmHg 44%
16:00 +29°C° 0 mm 2 mps 744 mmHg 44%
17:00 +29°C° 0 mm 2 mps 744 mmHg 45%
18:00 +27°C° 0 mm 1 mps 744 mmHg 52%
19:00 +25°C° 0 mm 1 mps 744 mmHg 59%
20:00 +23°C° 0 mm 1 mps 744 mmHg 65%
21:00 +22°C° 0 mm 1 mps 745 mmHg 67%
22:00 +22°C° 0 mm 1 mps 745 mmHg 69%
23:00 +21°C° 0 mm 1 mps 745 mmHg 70%

Day after tomorrow, 10 July, Friday

Time Temperature Precipitation Wind Pressure Humidity
00:00 +21°C° 0 mm 1 mps 745 mmHg 73%
01:00 +20°C° 0 mm 1 mps 745 mmHg 75%
02:00 +19°C° 0 mm 1 mps 745 mmHg 77%
03:00 +19°C° 0 mm 1 mps 745 mmHg 79%
04:00 +19°C° 0 mm 1 mps 745 mmHg 80%
05:00 +19°C° 0 mm 1 mps 745 mmHg 82%
06:00 +21°C° 0 mm 1 mps 745 mmHg 76%
07:00 +23°C° 0 mm 1 mps 745 mmHg 69%
08:00 +25°C° 0 mm 1 mps 745 mmHg 63%
09:00 +26°C° 0 mm 1 mps 745 mmHg 58%
10:00 +27°C° 0 mm 2 mps 745 mmHg 53%
11:00 +29°C° 0 mm 2 mps 745 mmHg 48%
12:00 +29°C° 0 mm 3 mps 745 mmHg 46%
13:00 +30°C° 0 mm 3 mps 744 mmHg 44%
14:00 +31°C° 0 mm 3 mps 744 mmHg 42%
15:00 +31°C° 0 mm 3 mps 744 mmHg 43%
16:00 +31°C° 0 mm 3 mps 743 mmHg 44%
17:00 +30°C° 0 mm 3 mps 743 mmHg 45%
18:00 +28°C° 0 mm 3 mps 743 mmHg 52%
19:00 +26°C° 0 mm 2 mps 743 mmHg 60%
20:00 +24°C° 0 mm 2 mps 743 mmHg 68%
21:00 +23°C° 0 mm 2 mps 744 mmHg 70%
22:00 +21°C° 0 mm 2 mps 744 mmHg 73%
23:00 +21°C° 0 mm 1 mps 744 mmHg 75%

11 July, Saturday

Time Temperature Precipitation Wind Pressure Humidity
00:00 +21°C° 0 mm 1 mps 744 mmHg 78%
01:00 +20°C° 0 mm 1 mps 744 mmHg 81%
02:00 +20°C° 0 mm 1 mps 744 mmHg 84%
03:00 +19°C° 0 mm 1 mps 744 mmHg 86%
04:00 +17°C° 0 mm 0 mps 743 mmHg 88%
05:00 +16°C° 0 mm 0 mps 743 mmHg 90%
06:00 +18°C° 0 mm 0 mps 743 mmHg 84%
07:00 +22°C° 0 mm 1 mps 743 mmHg 77%
08:00 +24°C° 0 mm 1 mps 743 mmHg 70%
09:00 +25°C° 0 mm 1 mps 743 mmHg 64%
10:00 +27°C° 0 mm 2 mps 743 mmHg 58%
11:00 +28°C° 0 mm 2 mps 743 mmHg 52%
12:00 +29°C° 0 mm 3 mps 743 mmHg 49%
13:00 +30°C° 0 mm 3 mps 742 mmHg 46%
14:00 +31°C° 0 mm 3 mps 742 mmHg 43%
15:00 +31°C° 0 mm 3 mps 742 mmHg 45%
16:00 +31°C° 0 mm 3 mps 741 mmHg 47%
17:00 +30°C° 0 mm 3 mps 741 mmHg 49%
18:00 +28°C° 0 mm 2 mps 741 mmHg 58%
19:00 +26°C° 0 mm 2 mps 741 mmHg 67%
20:00 +24°C° 0 mm 1 mps 741 mmHg 76%
21:00 +24°C° 0 mm 1 mps 741 mmHg 78%
22:00 +23°C° 0 mm 1 mps 742 mmHg 80%
23:00 +23°C° 0 mm 1 mps 742 mmHg 82%

12 July, Sunday

Time Temperature Precipitation Wind Pressure Humidity
00:00 +22°C° 0 mm 1 mps 742 mmHg 84%
01:00 +21°C° 0 mm 1 mps 741 mmHg 86%
02:00 +21°C° 0 mm 1 mps 741 mmHg 89%
03:00 +21°C° 0 mm 1 mps 741 mmHg 89%
04:00 +20°C° 0 mm 1 mps 741 mmHg 90%
05:00 +20°C° 0 mm 1 mps 741 mmHg 91%
06:00 +22°C° 0 mm 1 mps 742 mmHg 83%
07:00 +24°C° 0 mm 2 mps 742 mmHg 76%
08:00 +26°C° 0 mm 2 mps 742 mmHg 69%
09:00 +28°C° 0 mm 2 mps 743 mmHg 63%
10:00 +29°C° 0 mm 3 mps 743 mmHg 57%
11:00 +31°C° 0 mm 3 mps 743 mmHg 51%
12:00 +31°C° 0 mm 3 mps 743 mmHg 50%
13:00 +31°C° 0 mm 3 mps 742 mmHg 49%
14:00 +31°C° 0 mm 3 mps 742 mmHg 48%
15:00 +31°C° 0 mm 3 mps 742 mmHg 49%
16:00 +31°C° 0 mm 3 mps 742 mmHg 50%
17:00 +31°C° 0 mm 3 mps 742 mmHg 51%
18:00 +29°C° 0 mm 3 mps 742 mmHg 60%
19:00 +27°C° 0 mm 2 mps 742 mmHg 69%
20:00 +24°C° 0 mm 2 mps 742 mmHg 78%
21:00 +24°C° 0 mm 2 mps 743 mmHg 79%
22:00 +23°C° 0 mm 2 mps 743 mmHg 80%
23:00 +21°C° 0 mm 2 mps 744 mmHg 81%

13 July, Monday

Time Temperature Precipitation Wind Pressure Humidity
00:00 +20°C° 0 mm 2 mps 743 mmHg 82%
01:00 +20°C° 0 mm 2 mps 743 mmHg 82%
02:00 +19°C° 0 mm 2 mps 743 mmHg 82%
03:00 +19°C° 0 mm 2 mps 743 mmHg 81%
04:00 +18°C° 0 mm 2 mps 743 mmHg 81%
05:00 +18°C° 0 mm 2 mps 744 mmHg 80%
06:00 +19°C° 0 mm 2 mps 744 mmHg 74%
07:00 +21°C° 0 mm 2 mps 744 mmHg 67%
08:00 +23°C° 0 mm 2 mps 744 mmHg 60%
09:00 +24°C° 0 mm 2 mps 744 mmHg 54%
10:00 +26°C° 0 mm 2 mps 744 mmHg 49%
11:00 +27°C° 0 mm 2 mps 744 mmHg 43%
12:00 +28°C° 0 mm 2 mps 744 mmHg 41%
13:00 +29°C° 0 mm 2 mps 744 mmHg 39%
14:00 +30°C° 0 mm 2 mps 744 mmHg 38%
15:00 +29°C° 0 mm 2 mps 744 mmHg 39%
16:00 +29°C° 0 mm 3 mps 743 mmHg 41%
17:00 +29°C° 0 mm 3 mps 743 mmHg 43%
18:00 +27°C° 0 mm 3 mps 743 mmHg 52%
19:00 +25°C° 0 mm 2 mps 743 mmHg 60%
20:00 +23°C° 0 mm 2 mps 744 mmHg 69%
21:00 +21°C° 0 mm 2 mps 744 mmHg 72%
22:00 +21°C° 0 mm 1 mps 744 mmHg 74%
23:00 +20°C° 0 mm 1 mps 745 mmHg 77%
Show more